Reflectivity
-20 -20 -20 -20 -20 -20 -20 -20 -20 -20 -20 -20 -20 -20 -20 -20 -20 -20 -20 -20 -20 -20 -20 -4 -20 -17 -10 10 -18 -0 -14 -20 -5 -18 9 18 15 15 17 13 -20 -20 -20 -20 -20 -20 -20 -20 -14
-20 -20 -20 -20 -20 -20 -20 -20 -20 -20 -20 -20 -20 -20 -20 -20 -20 -20 -20 -20 -20 -20 -20 -20 -18 14 -20 -20 -20 -9 -20 -20 -20 -20 -8 18 14 14 18 -0 -20 -20 -20 -20 -20 -20 -20 -20 -20
-20 -20 -20 -20 -20 -20 -20 -20 -20 -20 -20 -20 -20 -20 -20 -20 -20 -20 -20 -20 -20 -20 -20 -20 -20 4 -12 8 -12 -20 -20 -8 6 -20 17 16 9 13 -5 -20 -20 -20 -20 -20 -20 -20 -20 -20 -20
-20 -20 -20 -20 -20 -20 -20 -20 -20 -20 -20 -20 -20 -20 -20 -20 -20 -20 -20 -20 -20 -20 -20 -20 -20 -20 8 -20 -19 -20 -15 -20 -20 13 16 9 -14 -20 -20 -20 -13 -6 -6 -20 -20 -20 -20 -20 5
-20 -20 -20 -20 -20 -20 -20 -20 -20 -20 -20 -20 -20 -20 -20 -20 -20 -20 -20 -20 -20 -20 -20 -20 -20 -20 -20 -20 14 5 9 -20 -20 14 15 -20 -20 -20 -20 11 -4 -16 -2 -20 -20 -20 -20 7 -20
-20 -20 -20 -20 -20 -20 -20 -20 -20 -20 -20 -20 -20 -20 -20 -20 -20 -20 -20 -20 -20 -20 -20 -20 -20 -20 -20 -20 -20 19 -6 -20 -20 10 11 -20 -20 -20 11 14 6 1 5 -5 -20 -20 -20 -15 -20
-20 -20 -20 -20 -20 -20 -20 -20 -20 -20 -20 -20 -20 -20 -20 -20 -20 -20 -20 -20 -20 -20 -20 -20 -20 -20 -20 -20 -20 -20 -19 -20 -20 14 -3 -8 -6 -20 -15 -16 -10 -2 4 13 -13 -16 -20 -20 -20
-20 -20 -20 -20 -20 -20 -20 -20 -20 -20 -20 -20 -20 -20 -20 -20 -20 -20 -20 -20 -20 -20 -20 -20 -20 -20 -20 7 -20 -20 -20 3 -20 13 1 -11 -10 -20 -20 -7 10 19 13 19 -14 4 -20 -20 6
-20 -20 -20 -20 -20 -20 -20 -20 -20 -20 -20 -20 -20 -20 -20 -20 -20 -20 -20 -20 -20 -20 -20 -20 -17 -10 -20 13 6 -20 2 -20 -20 11 13 -20 -20 -20 -20 -20 12 19 14 18 -15 -18 -20 -20 -20
-20 -20 -20 -20 -20 -20 -20 -20 -20 -20 -20 -20 -20 -20 -20 -20 -20 -20 -20 -20 -20 -20 -20 -20 -20 -20 -20 27 27 30 -20 -20 -20 -8 -19 -20 -20 -20 -20 -20 16 15 18 16 -11 -20 -20 -20 -20
-20 -20 -20 -20 -20 -20 -20 -20 -20 -20 -20 -20 -20 -20 -20 -20 -20 -20 -20 -20 -20 -20 -20 -20 -20 -20 -20 23 23 27 2 -20 -20 6 -20 -20 -20 -20 -20 -20 -9 -15 14 12 -10 -20 -20 -20 -20
-20 -20 -20 -20 -20 -20 -20 -20 -20 -20 -20 -20 -20 -20 -20 -20 -20 -20 -20 -20 -20 -20 -20 -20 -20 -20 -14 -16 -7 -18 25 -15 -20 3 -19 -20 -20 -20 -20 -20 -20 -12 -11 1 -20 -20 -20 -20 -20
-20 -20 -20 -20 -20 -20 -20 -20 -20 -20 -20 -20 -20 -20 -20 -20 -20 -20 -20 -20 -20 -20 -20 -20 -20 -20 -20 20 -20 -7 22 14 18 -18 -19 -20 -20 -20 -20 -20 -20 -20 -13 -20 -20 -20 -20 -20 -20
-20 -20 -20 -20 -20 -20 -20 -20 -20 -20 -20 -20 -20 -20 -20 -20 -20 -20 -20 -20 -20 -20 -20 -20 -20 -20 -20 -20 17 -2 -14 11 15 -14 -16 -20 -20 -20 -20 -20 -20 -20 -20 -20 -20 -20 -20 -20 -20
-20 -20 -20 -20 -20 -20 -20 -20 -20 -20 -20 -20 -20 -20 -20 -20 -20 -20 -20 -20 -20 -20 -20 -20 -20 -20 -20 -20 17 26 25 23 23 19 13 -20 -20 -20 -20 -20 -20 -20 -20 -20 -20 -20 -20 -20 -20
-20 -20 -20 -20 -20 -20 -20 -20 -20 -20 -20 -20 -20 -20 -20 -20 -20 -20 -20 -20 -20 -20 -20 -20 -20 -20 -20 -20 -20 21 24 30 10 23 21 -20 -20 -20 -20 -20 -20 -20 -20 -20 -20 -20 -20 -20 -20
-20 -20 -20 -20 -20 -20 -20 -20 -20 -20 -20 -20 -20 -20 -20 -20 -20 -20 -20 -20 -20 -20 -20 -20 -20 -20 -20 -20 -20 -20 6 28 36 29 21 -4 -20 -20 -20 -20 -20 -20 -20 -20 -20 -20 -20 -20 -20
-20 -20 -20 -20 -20 -20 -20 -20 -20 -20 -20 -20 -20 -20 -20 -20 -20 -20 -20 -20 -20 -20 -20 -20 -20 -20 -20 -20 -20 -20 21 37 45 31 36 16 -20 -20 -20 -20 -20 -20 -20 -20 -20 -20 -20 -20 -20
-20 -20 -20 -20 -20 -20 -20 -20 -20 -20 -20 -20 -20 -20 -20 -20 -20 -20 -20 -20 -20 -20 -20 -20 -20 -20 -20 -20 12 -20 -12 18 37 28 37 38 -6 -20 -20 -20 -20 -20 -20 -20 -20 -20 -20 -20 -20
-20 -20 -20 -20 -20 -20 -20 -20 -20 -20 -20 -20 -20 -20 -20 -20 -20 -20 -20 -20 -20 -20 -20 5 -20 -20 -20 -20 -20 -20 -2 4 35 25 46 35 22 -20 -20 -20 -20 -20 -20 -20 -20 -20 -20 -20 -20
-20 -20 -20 -20 -20 -20 -20 -20 -20 -20 -20 -20 -20 -20 -20 -20 -20 -20 -20 -20 -20 -20 -20 -20 -20 -20 16 22 -20 -20 -20 3 31 32 26 39 28 -15 -20 -20 -20 -20 -20 -20 -20 -20 -20 -20 -20
-20 -20 -20 -20 -20 -20 -20 -20 -20 -20 -20 -20 -20 -20 -20 -20 -20 -20 -20 -20 -20 -20 -5 6 -20 -20 -20 20 -14 -20 -20 -8 20 25 29 40 39 -8 -20 -20 -20 -20 -20 -20 -20 -20 -20 -20 -20
-16 -11 -20 -0 -19 -20 -20 -20 -20 -19 -20 -20 -20 -20 -20 -20 -20 -20 -20 -20 -20 -20 -2 -15 -10 -12 -20 13 5 -20 -20 20 24 20 25 38 37 7 -20 -20 -20 -20 -20 -20 -20 -20 -20 -20 -20
-20 -20 -20 -16 -20 -20 -20 -20 -20 -20 -20 -20 -20 -20 -20 -20 -20 -20 -20 -20 -20 -20 2 -20 -20 -2 2 -12 -20 11 -18 17 11 15 13 16 32 29 1 -18 -20 -20 -20 -20 -20 -20 -20 -20 -20
-20 -20 -12 15 -20 -20 -20 -20 -20 -20 -20 -20 -20 -20 -20 -20 -20 -20 -20 -20 -20 -20 -5 -5 -20 -19 -3 9 -20 -9 -5 -10 12 18 19 29 28 33 23 12 -20 -16 -20 -20 -20 -20 -20 -20 -20
-20 -20 -18 -8 20 16 22 15 16 -3 -17 6 -20 -20 0 -3 -20 -20 -20 -20 -20 -19 -20 -20 -12 -20 -1 28 23 -20 22 -2 15 16 14 27 23 22 28 10 -8 -9 -0 -4 -20 -20 -20 -20 -20
-19 -20 -5 -12 -20 -20 -20 -20 24 27 22 18 14 -1 3 -17 -20 -20 -20 -20 -20 -20 -19 -20 -20 4 17 26 21 24 34 7 13 16 4 15 27 18 30 17 -6 -20 -20 -20 -16 -20 -20 -20 -20
-20 -20 -12 6 11 12 -20 -18 4 -16 -16 7 -6 -20 -14 3 -20 -20 -20 -20 -20 -20 -20 11 -20 18 -7 19 28 20 34 36 25 -3 -4 8 22 31 27 26 7 -18 -20 -20 -20 -20 -20 -20 -20
-18 -20 -16 3 -0 -0 -12 15 34 19 23 11 4 18 19 3 -20 -20 -20 -20 -20 -20 -20 -19 10 -20 22 -19 9 -5 22 27 35 23 -12 3 15 26 32 26 26 13 -20 -20 -20 -20 -20 -20 -20
-20 -20 -20 -19 4 7 11 12 32 23 30 26 18 -8 -3 -18 -20 -20 -20 -20 -20 -20 -20 -20 -1 4 -15 12 28 -20 -5 4 35 22 22 9 10 26 30 26 19 17 12 -11 -20 -20 -20 -20 -20
Wind_Speed
8 6 2 5 5 5 3 7 3 6 5 4 4 2 8 1 2 4 1 2 9 13 12 13 15 16 13 16 16 16 14 16 17 17 15 15 16 14 14 14 13 12 12 13 13 14 16 15 15
4 4 5 3 6 3 5 4 3 2 3 6 2 3 3 3 2 4 3 2 11 12 11 11 16 13 16 16 16 17 15 17 15 16 15 15 15 14 13 13 13 12 13 14 14 14 14 15 15
4 1 4 4 4 5 5 3 3 1 4 5 5 2 2 2 2 4 1 6 10 10 10 11 16 14 12 17 17 17 17 17 14 15 15 15 15 14 13 12 13 13 13 14 14 14 14 14 14
2 4 5 4 5 7 4 5 2 1 4 7 4 3 4 5 3 3 5 8 8 7 9 11 16 17 12 13 18 19 19 18 14 14 14 15 15 15 14 13 13 12 13 15 14 15 15 13 14
4 3 3 0 5 5 4 3 2 3 3 2 1 3 6 2 4 5 7 6 7 7 7 9 17 17 16 13 16 19 19 17 16 16 15 15 15 15 15 14 14 15 15 15 16 17 17 14 12
4 3 3 3 5 4 3 2 4 1 1 3 4 2 5 1 5 4 5 7 5 5 6 10 14 17 17 15 16 17 19 17 18 17 16 16 16 16 16 16 16 16 17 18 17 18 16 15 14
5 4 4 4 5 4 1 3 1 2 2 3 6 1 4 6 5 6 6 5 6 4 5 7 10 12 16 17 18 19 18 18 17 16 16 15 14 15 17 17 17 18 18 18 18 17 15 14 15
5 4 2 5 3 4 1 4 1 1 4 2 7 5 5 3 9 2 0 5 4 2 3 7 6 8 9 11 17 18 20 17 17 16 15 13 12 13 16 15 17 17 17 17 18 17 15 17 20
3 3 3 5 2 4 1 5 4 2 4 2 4 5 7 8 3 4 2 3 2 2 4 6 6 6 8 9 12 16 17 17 16 13 13 13 6 7 10 9 15 16 16 16 18 16 14 15 17
4 3 7 5 2 5 3 2 3 3 6 8 7 8 8 8 7 6 7 8 5 5 5 6 7 7 7 8 7 10 11 9 9 9 11 7 7 5 6 8 13 14 14 14 18 15 12 10 5
4 6 4 4 5 3 4 4 4 3 8 10 8 8 6 5 7 7 6 8 8 6 4 7 7 9 9 8 6 5 5 6 7 11 10 8 7 5 4 4 7 7 10 7 8 6 4 6 6
3 8 6 5 3 4 5 3 6 10 18 8 10 9 7 11 10 9 10 9 7 7 8 8 7 8 9 7 7 8 8 6 7 10 11 8 6 6 5 5 7 6 6 5 4 3 5 6 7
7 5 7 9 7 7 6 13 8 13 12 10 9 9 12 11 12 10 13 9 8 8 8 9 7 7 9 10 8 9 9 9 10 11 11 10 9 9 7 5 7 5 5 6 5 4 4 6 9
4 6 8 9 13 8 8 3 8 12 6 7 6 10 11 11 15 10 8 12 9 9 9 9 8 7 8 8 11 10 9 11 10 10 12 13 10 9 9 8 7 6 6 5 5 5 5 4 9
5 9 8 10 4 7 7 8 11 18 6 9 10 9 10 12 12 13 15 13 11 10 10 9 9 8 8 10 10 6 9 11 12 11 15 14 13 12 12 10 8 8 6 7 5 4 4 5 7
3 1 5 4 7 3 7 10 7 11 5 10 11 10 9 11 10 10 11 12 9 6 9 9 7 8 7 7 9 4 10 9 11 11 13 14 14 15 12 10 10 8 6 7 6 4 5 6 8
3 5 6 9 5 3 5 8 11 6 6 9 10 9 8 7 8 8 9 9 8 9 8 8 6 6 11 11 9 6 10 5 6 6 13 16 16 15 13 11 10 10 7 8 7 3 8 8 7
6 5 5 6 2 5 7 15 18 15 9 10 8 7 5 7 7 9 8 7 7 6 4 5 6 11 11 7 5 5 7 6 2 6 6 19 15 17 14 11 11 10 8 7 6 9 6 9 9
3 4 8 14 7 5 10 9 16 14 7 8 5 1 5 6 7 6 7 3 5 5 6 9 10 9 9 6 4 3 3 3 5 4 8 12 15 16 14 10 11 11 10 10 10 9 12 5 11
11 11 15 9 8 5 8 11 15 13 7 6 8 5 5 7 9 7 7 5 3 3 5 7 8 9 7 6 3 3 4 3 8 7 6 10 9 13 13 13 12 13 10 10 11 11 7 4 10
9 9 12 12 3 5 5 8 7 4 6 8 6 5 6 6 8 8 8 1 1 3 5 8 7 6 4 6 7 5 5 4 4 7 7 5 8 10 12 13 12 11 12 11 13 13 13 12 1
15 9 14 9 2 4 2 6 8 3 5 6 7 8 7 8 8 11 12 8 5 5 4 7 8 6 4 8 10 15 10 7 6 13 9 5 11 6 8 9 10 10 8 11 11 12 11 13 12
13 1 4 3 4 1 3 1 8 7 5 6 7 7 7 6 8 10 11 14 5 3 3 5 5 7 6 6 3 8 6 3 3 6 16 15 6 7 9 10 9 9 6 9 11 9 12 12 10
3 3 3 1 4 3 9 9 5 8 10 7 5 7 7 9 10 12 10 11 12 5 2 5 7 7 8 9 5 7 6 6 6 3 7 6 7 7 9 10 10 10 10 9 9 10 13 12 9
2 4 4 4 1 7 1 5 5 6 9 8 9 8 7 9 11 11 13 12 12 10 8 5 6 8 9 10 9 6 7 9 12 9 9 9 6 6 8 9 9 7 9 9 8 9 10 11 9
5 6 3 4 2 3 4 5 5 12 11 12 10 8 9 13 12 12 12 12 12 12 9 11 7 9 10 11 11 9 8 5 6 10 9 9 7 3 5 9 9 9 7 8 7 7 7 8 7
3 3 4 3 4 1 4 6 5 7 11 10 11 10 11 12 11 11 13 12 13 14 14 14 7 8 10 10 9 10 8 9 9 11 10 8 6 3 4 5 5 6 6 7 8 6 6 7 6
5 2 2 2 3 6 2 2 1 6 9 9 10 11 11 9 10 10 11 13 13 14 14 17 15 10 10 10 10 10 11 10 10 10 11 11 10 9 8 7 7 7 7 7 8 5 6 8 4
5 3 2 3 4 3 3 3 3 9 10 10 11 8 9 8 8 9 9 11 13 14 15 15 16 15 7 9 9 11 11 13 10 10 11 11 13 14 13 14 13 11 9 8 7 6 8 9 8
8 4 6 3 3 4 1 3 7 8 5 8 9 8 7 5 7 6 8 11 15 16 15 15 15 14 16 7 5 8 8 10 10 11 12 12 13 12 14 12 13 13 14 11 11 11 10 11 10
Wind_Direction
334 323 55 40 64 65 263 264 268 4 10 316 306 19 122 86 74 161 280 50 138 153 159 155 170 163 165 155 156 155 160 150 146 141 143 145 135 135 139 139 135 134 137 136 138 137 136 125 131
357 341 41 86 92 97 264 264 142 61 283 307 327 338 31 86 116 120 91 162 149 150 159 158 166 175 172 167 162 162 166 153 148 141 150 153 136 137 145 139 139 137 140 139 130 129 129 133 132
331 73 84 108 128 187 205 213 190 194 352 46 350 305 80 121 122 119 180 122 142 158 160 166 168 180 184 177 170 160 160 159 157 143 156 155 141 146 146 145 141 146 138 138 133 133 134 132 127
49 16 25 101 222 252 213 238 222 161 346 36 314 355 10 314 130 147 103 129 130 156 169 171 170 172 194 190 176 167 164 161 157 158 156 158 155 151 150 150 145 141 144 137 140 140 138 138 129
40 58 65 23 256 265 273 237 215 152 169 64 315 294 299 16 67 58 62 77 147 169 174 184 180 176 184 187 180 168 163 152 142 160 169 167 160 156 154 154 153 147 145 145 148 138 136 125 110
44 96 72 230 249 268 271 251 152 100 308 335 74 19 281 176 103 124 52 83 78 137 188 186 191 186 182 182 175 168 161 154 153 170 171 170 165 160 158 158 161 156 151 151 150 143 136 115 113
111 92 214 227 247 278 188 320 101 164 295 287 145 230 244 160 191 161 139 116 116 107 167 193 198 201 185 183 179 165 162 161 159 172 169 170 164 157 160 161 164 160 158 153 142 145 137 116 124
107 102 241 239 218 252 47 338 216 236 276 289 175 236 249 178 200 202 60 128 137 140 163 190 205 196 194 191 178 173 164 162 163 173 168 154 149 157 160 165 166 163 162 149 144 148 137 110 113
88 77 234 244 238 271 346 9 319 304 252 345 251 220 236 275 234 261 276 303 182 193 200 190 203 204 195 192 189 171 167 163 162 169 148 138 138 157 160 165 165 163 165 154 147 153 140 113 106
110 150 224 211 219 250 272 283 298 312 276 269 265 263 259 279 290 283 278 265 243 205 225 206 203 208 192 198 188 180 170 168 166 157 147 144 139 150 163 172 151 161 163 152 153 161 131 102 92
188 210 214 253 221 237 275 278 216 227 275 223 224 260 272 256 279 277 261 254 236 218 227 216 202 200 190 194 170 173 166 165 160 150 150 151 146 150 161 165 157 158 161 166 148 154 118 113 117
244 241 233 258 226 312 281 265 267 209 249 225 228 235 251 263 257 246 251 239 236 224 221 227 210 192 201 185 177 174 172 168 166 161 155 158 156 157 164 180 157 153 163 141 137 145 134 118 118
232 250 244 256 270 251 250 251 242 260 245 267 256 241 248 250 250 244 235 240 223 219 223 226 204 198 202 199 179 179 181 171 180 165 166 162 166 171 162 168 160 151 142 151 152 157 137 117 128
289 284 272 267 261 242 228 244 148 268 259 267 265 261 248 235 241 244 229 235 220 217 218 214 208 200 195 196 181 191 184 177 179 178 169 171 169 170 166 163 164 158 157 157 158 154 145 125 135
275 300 294 256 236 217 170 281 223 246 286 278 280 268 260 250 252 232 231 219 213 216 216 208 211 190 191 183 183 198 199 189 178 191 167 173 173 172 168 165 168 168 160 154 153 144 117 114 136
271 227 322 287 157 229 129 269 233 250 207 270 280 283 281 279 263 255 235 217 210 203 206 212 205 186 183 128 99 152 49 222 179 189 167 174 174 171 169 169 171 168 158 162 163 145 122 128 139
264 237 213 308 209 122 181 252 268 217 234 264 277 286 296 308 310 282 250 218 204 208 212 214 181 138 129 123 124 101 76 36 359 233 180 176 173 174 170 173 171 167 163 170 168 146 143 137 139
212 222 243 247 269 193 236 255 275 281 239 248 271 303 307 334 318 309 296 232 212 211 209 129 122 127 129 130 121 122 148 102 92 6 307 170 174 174 170 169 169 173 164 162 155 154 142 136 134
335 279 265 269 251 256 257 267 267 280 238 251 287 221 20 343 302 344 352 87 85 72 125 151 139 141 138 139 140 154 149 129 110 95 337 274 174 171 167 164 165 173 174 173 162 149 140 115 130
257 269 264 278 267 179 262 274 275 283 245 193 145 93 31 359 349 347 1 53 2 135 153 162 157 156 154 151 139 145 146 148 140 134 136 331 201 169 164 159 167 173 165 161 161 149 146 122 159
239 227 263 253 311 265 301 290 296 359 78 85 66 73 41 26 358 347 356 59 186 211 169 174 161 159 160 150 123 108 80 133 142 134 108 301 286 165 164 162 163 169 166 170 169 160 161 161 173
268 218 245 261 157 228 60 278 301 139 109 83 80 59 38 25 12 18 9 347 249 227 228 197 166 162 175 177 161 166 170 169 217 147 134 195 274 163 153 149 155 159 168 169 171 167 164 162 163
256 218 250 217 219 62 223 227 262 156 146 118 87 70 46 41 37 16 11 6 326 236 180 177 195 175 173 224 206 167 170 181 166 139 163 179 201 206 160 160 154 154 159 172 170 165 168 175 167
285 314 292 174 145 264 210 186 271 179 166 134 97 63 39 31 31 22 13 11 10 347 206 202 187 189 183 196 227 191 163 156 160 135 160 194 177 204 171 165 175 170 174 173 177 173 172 176 175
136 64 289 336 13 232 307 164 245 110 108 110 95 70 46 41 32 24 13 8 359 3 340 232 217 206 189 188 201 194 185 175 160 179 170 168 204 215 173 166 175 174 182 180 172 171 174 174 175
225 183 204 279 240 271 74 286 6 99 97 97 85 67 46 38 24 15 11 7 356 353 341 328 228 221 200 199 196 185 202 185 164 191 177 185 178 201 186 182 180 176 168 159 160 165 171 164 169
298 243 225 233 230 34 215 121 102 82 89 64 72 59 44 34 16 6 5 6 359 358 351 344 262 233 213 198 184 186 202 187 184 188 184 177 177 146 154 165 159 160 165 156 157 164 157 161 151
200 300 345 339 240 229 244 158 100 81 76 73 58 43 38 27 14 4 3 5 1 1 355 357 356 273 240 206 198 192 190 190 198 185 180 172 172 184 169 173 166 159 155 158 159 147 142 139 134
335 350 340 23 272 270 304 101 67 56 36 31 44 43 32 20 6 2 358 5 7 5 4 359 354 345 269 218 209 206 197 188 183 188 187 176 167 181 194 189 176 161 160 156 142 141 141 142 140
265 46 40 25 325 292 243 130 95 78 57 26 21 31 33 11 0 357 355 5 12 6 4 359 352 355 354 294 218 206 192 183 183 195 191 180 178 191 193 186 182 173 164 164 160 155 153 148 148